Regional Weather Roundup
Issued by NWS

Home | Current Version | Previous Version | Graphics & Text | Print | Product List | Glossary On
Versions: 1 2 3 4 5 6 7 8 9 10 11 12 13 14 15 16 17 18 19 20 21 22 23 24 25 26 27 28 29 30 31 32 33 34 35 36 37 38 39 40 41 42 43 44 45 46 47 48 49 50
000
ASUS44 KMEG 011800
RWRTN
TENNESSEE HOURLY STATE WEATHER ROUNDUP
NATIONAL WEATHER SERVICE MEMPHIS TN
100 PM CDT WED OCT 01 2014

TNZ002-004-019-021-049-052-054-088>092-011900-
WEST TENNESSEE

CITY           SKY/WX    TMP DP  RH WIND       PRES   REMARKS
MEMPHIS INTL   FAIR      88  64  44 S12       29.93F
NWS MEMPHIS      N/A     87 N/A N/A MISG        N/A
JACKSON        FAIR      86  61  42 SW12      29.95F
DYERSBURG      FAIR      86  57  37 SE7       29.94F
UNION CITY     SUNNY     84  63  48 S10       29.93F
PARIS          SUNNY     86  57  37 S6        29.96F
$$

TNZ008-025-027-028-033-062-065-066-011900-
NORTH MIDDLE TENNESSEE

CITY           SKY/WX    TMP DP  RH WIND       PRES   REMARKS
NASHVILLE      MOSUNNY   86  53  32 S6        29.98F
CLARKSVILLE    MOSUNNY   86  57  37 SW8       29.96F
COOKEVILLE     SUNNY     84  57  39 VRB3      30.01F
CROSSVILLE     SUNNY     78  50  37 MISG      30.05F
$$

TNZ061-075-076-078-094-096-097-011900-
SOUTH MIDDLE TENNESSEE

CITY           SKY/WX    TMP DP  RH WIND       PRES   REMARKS
WINCHESTER     PTSUNNY   81  57  44 NW3       30.00F
SHELBYVILLE    PTSUNNY   84  63  48 W3        30.01S
$$

TNZ017-018-042-046-047-011900-
NORTHEAST TENNESSEE

CITY           SKY/WX    TMP DP  RH WIND       PRES   REMARKS
TRI CITIES     MOSUNNY   77  48  35 W3        30.04F
ELIZABETHTON   PTCLDY    77  50  38 VRB5      30.04S
$$

TNZ012-013-036-069-073-074-011900-
CENTRAL EAST TENNESSEE

CITY           SKY/WX    TMP DP  RH WIND       PRES   REMARKS
KNOXVILLE      PTSUNNY   81  54  39 VRB5      30.00F
OAK RIDGE      MOSUNNY   80  59  48 VRB3      30.03F
GATLINBURG     CLEAR     82  54  36 SW5       30.00F
MORRISTOWN     CLEAR     79  57  47 VRB7      30.03F
$$

TNZ083-085-099-011900-
SOUTHEAST TENNESSEE

CITY           SKY/WX    TMP DP  RH WIND       PRES   REMARKS
CHATTANOOGA    PTSUNNY   82  60  47 CALM      30.00F
$$

SKY/WX REPORTED AS FAIR MEANS FEW OR NO CLOUDS BELOW
12 THOUSAND FEET.



USA.gov is the U.S. government's official web portal to all federal, state and local government web resources and services.